Location: Dead Woman Crossing
(43.5369°N, 106.3228°W)
Time: 15:25:07
(UTC+00:00)

O/OREOS (USA 219) - Pass Details

Date: 30 June 2022
Orbit: 621 x 646 km, 72.0° (Epoch: 22 May)

Event Time Altitude Azimuth Distance (km) Brightness Sun altitude
Rises 08:31:17 0° 327° (NNW) 2,963 ? -20.7°
Reaches altitude 10° 08:33:44 10° 318° (NW) 2,050 ? -20.5°
Enters shadow 08:37:50 33° 255° (WSW) 1,087 ? -20.2°
